| time (UTC) | temp F | wind direction | speed knots | gust knots | rain 1hr in | rain 24hr in | rain mn in | humidity % | barometer mb |
| 20260906095404 | 45 | 323 | 10.4 | 13.9 | 0.00 | 0.00 | 0.00 | 80 | 1004.2 |
| 20260906094504 | 45 | 322 | 11.3 | 18.2 | 0.00 | 0.01 | 0.00 | 80 | 1004.2 |
| 20260906093625 | 45 | 326 | 9.6 | 14.8 | 0.00 | 0.02 | 0.00 | 80 | 1004.0 |
| 20260906092725 | 45 | 326 | 8.7 | 15.6 | 0.00 | 0.02 | 0.00 | 80 | 1004.1 |
| 20260906091804 | 45 | 326 | 8.7 | 17.4 | 0.00 | 0.02 | 0.00 | 81 | 1004.0 |
| 20260906090904 | 45 | 328 | 8.7 | 15.6 | 0.00 | 0.02 | 0.00 | 82 | 1003.9 |
| 20260906090004 | 44 | 325 | 8.7 | 14.8 | 0.00 | 0.02 | 0.00 | 82 | 1003.8 |
| 20260906085404 | 44 | 327 | 9.6 | 16.5 | 0.00 | 0.02 | 0.00 | 82 | 1003.7 |
| 20260906084525 | 44 | 328 | 9.6 | 17.4 | 0.00 | 0.02 | 0.00 | 82 | 1003.7 |
| 20260906083604 | 44 | 327 | 10.4 | 16.5 | 0.00 | 0.02 | 0.00 | 81 | 1003.5 |
| 20260906082704 | 44 | 333 | 8.7 | 16.5 | 0.00 | 0.02 | 0.00 | 82 | 1003.4 |
| 20260906081804 | 44 | 331 | 11.3 | 19.1 | 0.00 | 0.02 | 0.00 | 81 | 1003.4 |
| 20260906080904 | 44 | 330 | 11.3 | 16.5 | 0.00 | 0.02 | 0.00 | 82 | 1003.2 |
| 20260906080004 | 44 | 334 | 8.7 | 18.2 | 0.00 | 0.02 | 0.00 | 82 | 1003.1 |
| 20260906075425 | 44 | 338 | 7.8 | 14.8 | 0.00 | 0.02 | 0.00 | 82 | 1003.0 |
| 20260906074504 | 44 | 331 | 7.0 | 13.9 | 0.00 | 0.02 | 0.00 | 82 | 1002.9 |
| 20260906073604 | 44 | 331 | 8.7 | 17.4 | 0.00 | 0.02 | 0.00 | 82 | 1002.8 |
| 20260906072725 | 44 | 332 | 8.7 | 13.9 | 0.00 | 0.02 | 0.00 | 83 | 1002.7 |
| 20260906071825 | 44 | 329 | 7.8 | 15.6 | 0.00 | 0.02 | 0.00 | 83 | 1002.5 |
| 20260906070904 | 44 | 338 | 6.1 | 13.0 | 0.00 | 0.03 | 0.00 | 83 | 1002.4 |
| 20260906070025 | 44 | 338 | 7.8 | 16.5 | 0.00 | 0.04 | 0.00 | 82 | 1002.3 |
| 20260906065404 | 44 | 333 | 8.7 | 20.9 | 0.00 | 0.04 | 0.00 | 82 | 1002.3 |
| 20260906064504 | 44 | 330 | 8.7 | 14.8 | 0.00 | 0.05 | 0.00 | 83 | 1002.2 |
| 20260906063604 | 44 | 335 | 7.0 | 17.4 | 0.00 | 0.05 | 0.00 | 82 | 1002.0 |
| 20260906062704 | 43 | 335 | 7.8 | 17.4 | 0.00 | 0.06 | 0.00 | 83 | 1002.0 |
| 20260906061804 | 43 | 331 | 11.3 | 18.2 | 0.00 | 0.08 | 0.00 | 82 | 1001.8 |
| 20260906060925 | 43 | 337 | 9.6 | 19.1 | 0.00 | 0.10 | 0.00 | 83 | 1001.8 |
| 20260906060004 | 43 | 339 | 10.4 | 22.6 | 0.00 | 0.11 | 0.00 | 82 | 1001.7 |
| 20260906055404 | 43 | 335 | 9.6 | 18.2 | 0.00 | 0.11 | 0.00 | 82 | 1001.4 |
| 20260906054504 | 43 | 332 | 8.7 | 14.8 | 0.00 | 0.11 | 0.00 | 82 | 1001.5 |
| 20260906053604 | 43 | 335 | 8.7 | 16.5 | 0.00 | 0.11 | 0.00 | 82 | 1001.4 |
| 20260906052704 | 43 | 332 | 8.7 | 16.5 | 0.00 | 0.11 | 0.00 | 82 | 1001.3 |
| 20260906051804 | 42 | 335 | 9.6 | 17.4 | 0.00 | 0.12 | 0.00 | 82 | 1001.2 |
| 20260906050925 | 42 | 333 | 11.3 | 18.2 | 0.00 | 0.12 | 0.00 | 82 | 1001.2 |
| 20260906050004 | 42 | 329 | 10.4 | 20.9 | 0.00 | 0.12 | 0.00 | 82 | 1001.2 |
| 20260906045425 | 42 | 336 | 9.6 | 18.2 | 0.00 | 0.12 | 0.00 | 82 | 1001.2 |
| 20260906044504 | 42 | 331 | 11.3 | 20.9 | 0.00 | 0.12 | 0.00 | 82 | 1001.0 |
| 20260906043604 | 42 | 337 | 7.8 | 16.5 | 0.00 | 0.12 | 0.00 | 83 | 1000.9 |
| 20260906042704 | 42 | 331 | 8.7 | 18.2 | 0.00 | 0.12 | 0.00 | 83 | 1000.8 |
| 20260906041804 | 42 | 329 | 7.8 | 15.6 | 0.00 | 0.12 | 0.00 | 83 | 1000.8 |
| 20260906040904 | 42 | 335 | 7.8 | 16.5 | 0.00 | 0.12 | 0.00 | 83 | 1000.7 |
| 20260906040025 | 42 | 335 | 8.7 | 16.5 | 0.00 | 0.12 | 0.00 | 82 | 1000.6 |
| 20260906035425 | 42 | 333 | 9.6 | 18.2 | 0.00 | 0.12 | 0.00 | 83 | 1000.6 |
| 20260906034504 | 43 | 333 | 9.6 | 19.1 | 0.00 | 0.12 | 0.00 | 82 | 1000.5 |
| 20260906033604 | 43 | 334 | 9.6 | 22.6 | 0.00 | 0.12 | 0.00 | 82 | 1000.4 |
| 20260906032704 | 43 | 329 | 9.6 | 18.2 | 0.00 | 0.12 | 0.00 | 83 | 1000.4 |
| 20260906031804 | 43 | 330 | 8.7 | 14.8 | 0.00 | 0.12 | 0.00 | 83 | 1000.3 |
| 20260906030904 | 43 | 327 | 8.7 | 16.5 | 0.00 | 0.12 | 0.00 | 82 | 1000.1 |
| 20260906030004 | 43 | 325 | 10.4 | 19.1 | 0.00 | 0.12 | 0.00 | 82 | 1000.0 |
| 20260906025425 | 43 | 324 | 10.4 | 16.5 | 0.00 | 0.12 | 0.00 | 82 | 1000.0 |
| 20260906024504 | 43 | 327 | 9.6 | 15.6 | 0.00 | 0.12 | 0.00 | 83 | 999.9 |
| 20260906023604 | 43 | 324 | 10.4 | 15.6 | 0.00 | 0.12 | 0.00 | 83 | 999.9 |
| 20260906022704 | 43 | 324 | 9.6 | 16.5 | 0.00 | 0.12 | 0.00 | 83 | 999.9 |
| 20260906021804 | 43 | 327 | 9.6 | 16.5 | 0.00 | 0.12 | 0.00 | 83 | 999.8 |
| 20260906020904 | 43 | 329 | 8.7 | 14.8 | 0.00 | 0.12 | 0.00 | 84 | 999.7 |
| 20260906020025 | 43 | 326 | 7.0 | 10.4 | 0.00 | 0.12 | 0.00 | 85 | 999.6 |
| 20260906015404 | 43 | 324 | 7.0 | 11.3 | 0.00 | 0.12 | 0.00 | 85 | 999.5 |
| 20260906014504 | 43 | 325 | 7.8 | 12.2 | 0.00 | 0.12 | 0.00 | 86 | 999.5 |
| 20260906013604 | 43 | 326 | 6.1 | 10.4 | 0.00 | 0.12 | 0.00 | 86 | 999.4 |
| 20260906012704 | 44 | 328 | 8.7 | 15.6 | 0.00 | 0.12 | 0.00 | 85 | 999.4 |
| 20260906011825 | 44 | 332 | 7.0 | 13.0 | 0.00 | 0.12 | 0.00 | 86 | 999.3 |
| 20260906010904 | 44 | 326 | 7.0 | 12.2 | 0.00 | 0.12 | 0.00 | 86 | 999.3 |
| 20260906010025 | 44 | 323 | 7.8 | 12.2 | 0.00 | 0.12 | 0.00 | 86 | 999.2 |
| 20260906005404 | 44 | 324 | 7.0 | 12.2 | 0.00 | 0.12 | 0.00 | 86 | 999.2 |
| 20260906004504 | 43 | 318 | 7.8 | 11.3 | 0.00 | 0.12 | 0.00 | 86 | 999.1 |
| 20260906003604 | 43 | 318 | 7.0 | 11.3 | 0.00 | 0.12 | 0.00 | 86 | 999.0 |
| 20260906002703 | 43 | 314 | 6.1 | 11.3 | 0.00 | 0.12 | 0.00 | 87 | 999.0 |
| 20260906001825 | 43 | 314 | 6.1 | 9.6 | 0.00 | 0.12 | 0.00 | 88 | 999.0 |
| 20260906000904 | 42 | 317 | 4.3 | 7.8 | 0.00 | 0.12 | 0.00 | 88 | 998.9 |
| 20260906000004 | 42 | 320 | 4.3 | 7.8 | 0.00 | 0.12 | 0.00 | 88 | 998.8 |
| 20260905235424 | 42 | 320 | 5.2 | 10.4 | 0.00 | 0.12 | 0.00 | 88 | 998.8 |
| 20260905234504 | 42 | 318 | 6.1 | 10.4 | 0.00 | 0.12 | 0.00 | 88 | 998.8 |
| 20260905233604 | 42 | 319 | 6.1 | 10.4 | 0.00 | 0.12 | 0.00 | 87 | 998.7 |
| 20260905232704 | 42 | 316 | 5.2 | 10.4 | 0.00 | 0.12 | 0.00 | 87 | 998.8 |
| 20260905231804 | 42 | 311 | 4.3 | 7.8 | 0.00 | 0.12 | 0.00 | 86 | 998.8 |
| 20260905230925 | 43 | 313 | 4.3 | 7.0 | 0.00 | 0.12 | 0.00 | 86 | 998.8 |
| 20260905230004 | 43 | 314 | 3.5 | 7.8 | 0.00 | 0.12 | 0.00 | 85 | 998.7 |
| 20260905225404 | 43 | 319 | 4.3 | 9.6 | 0.00 | 0.12 | 0.00 | 85 | 998.7 |
| 20260905224504 | 43 | 323 | 5.2 | 10.4 | 0.00 | 0.12 | 0.00 | 84 | 998.8 |
| 20260905223603 | 44 | 326 | 7.0 | 12.2 | 0.00 | 0.12 | 0.00 | 84 | 998.8 |
| 20260905222704 | 44 | 326 | 7.0 | 11.3 | 0.00 | 0.12 | 0.00 | 83 | 998.7 |
| 20260905221803 | 44 | 328 | 7.0 | 10.4 | 0.00 | 0.12 | 0.00 | 82 | 998.7 |
| 20260905220904 | 44 | 329 | 6.1 | 10.4 | 0.00 | 0.12 | 0.00 | 82 | 998.5 |
| 20260905220025 | 44 | 328 | 5.2 | 9.6 | 0.00 | 0.12 | 0.00 | 83 | 998.5 |
| 20260905215425 | 44 | 327 | 5.2 | 11.3 | 0.00 | 0.12 | 0.00 | 83 | 998.5 |
| 20260905214504 | 44 | 329 | 7.0 | 11.3 | 0.00 | 0.12 | 0.00 | 83 | 998.5 |
| 20260905213604 | 44 | 329 | 7.8 | 13.9 | 0.00 | 0.12 | 0.00 | 83 | 998.5 |
| 20260905212704 | 44 | 334 | 7.0 | 13.0 | 0.00 | 0.12 | 0.00 | 84 | 998.5 |
| 20260905211804 | 45 | 330 | 7.0 | 13.9 | 0.00 | 0.12 | 0.00 | 84 | 998.5 |
| 20260905210924 | 45 | 333 | 6.1 | 11.3 | 0.00 | 0.12 | 0.00 | 85 | 998.4 |
| 20260905210026 | 46 | 327 | 7.0 | 13.0 | 0.00 | 0.12 | 0.00 | 85 | 998.3 |
| 20260905205403 | 46 | 330 | 7.0 | 13.0 | 0.00 | 0.12 | 0.12 | 85 | 998.3 |
| 20260905204524 | 46 | 331 | 7.8 | 13.9 | 0.00 | 0.12 | 0.12 | 86 | 998.3 |
| 20260905203625 | 46 | 327 | 7.0 | 10.4 | 0.00 | 0.12 | 0.12 | 87 | 998.2 |
| 20260905202704 | 46 | 332 | 7.0 | 12.2 | 0.00 | 0.12 | 0.12 | 87 | 998.3 |
| 20260905201803 | 46 | 328 | 7.8 | 12.2 | 0.00 | 0.12 | 0.12 | 88 | 998.2 |
| 20260905200924 | 46 | 329 | 8.7 | 13.0 | 0.00 | 0.12 | 0.12 | 88 | 998.1 |
| 20260905200025 | 46 | 326 | 7.8 | 13.9 | 0.00 | 0.12 | 0.12 | 88 | 998.1 |
| 20260905195425 | 46 | 330 | 7.0 | 12.2 | 0.00 | 0.12 | 0.12 | 88 | 998.0 |
| 20260905194504 | 46 | 333 | 7.0 | 12.2 | 0.00 | 0.12 | 0.12 | 88 | 998.0 |
| 20260905193603 | 46 | 333 | 5.2 | 10.4 | 0.00 | 0.12 | 0.12 | 88 | 998.0 |
| 20260905192704 | 46 | 333 | 6.1 | 13.0 | 0.00 | 0.12 | 0.12 | 88 | 997.9 |
| 20260905191803 | 46 | 335 | 7.0 | 13.9 | 0.00 | 0.12 | 0.12 | 88 | 997.9 |
| 20260905190904 | 46 | 329 | 9.6 | 14.8 | 0.00 | 0.12 | 0.12 | 88 | 997.9 |
| 20260905190004 | 46 | 330 | 8.7 | 13.9 | 0.00 | 0.12 | 0.12 | 87 | 997.9 |
| 20260905185403 | 47 | 329 | 7.0 | 12.2 | 0.00 | 0.12 | 0.12 | 87 | 997.9 |
| 20260905184504 | 47 | 333 | 7.8 | 13.0 | 0.00 | 0.12 | 0.12 | 86 | 997.9 |
| 20260905183625 | 47 | 333 | 7.0 | 11.3 | 0.00 | 0.12 | 0.12 | 86 | 997.8 |
| 20260905182703 | 47 | 335 | 7.8 | 12.2 | 0.00 | 0.12 | 0.12 | 86 | 997.6 |
| 20260905181825 | 47 | 335 | 7.0 | 13.0 | 0.00 | 0.12 | 0.12 | 86 | 997.5 |
| 20260905180925 | 47 | 334 | 7.0 | 15.6 | 0.00 | 0.12 | 0.12 | 86 | 997.5 |
| 20260905180004 | 47 | 334 | 7.0 | 15.6 | 0.00 | 0.12 | 0.12 | 86 | 997.5 |
| 20260905175404 | 47 | 332 | 7.8 | 17.4 | 0.00 | 0.12 | 0.12 | 87 | 997.4 |
| 20260905174503 | 48 | 330 | 7.8 | 14.8 | 0.00 | 0.12 | 0.12 | 87 | 997.3 |
| 20260905173603 | 48 | 333 | 7.8 | 14.8 | 0.00 | 0.12 | 0.12 | 87 | 997.2 |
| 20260905172703 | 48 | 331 | 8.7 | 13.0 | 0.00 | 0.12 | 0.12 | 87 | 997.1 |
| 20260905171803 | 48 | 328 | 7.8 | 14.8 | 0.00 | 0.12 | 0.12 | 87 | 996.9 |
| 20260905170904 | 48 | 335 | 6.1 | 10.4 | 0.00 | 0.12 | 0.12 | 86 | 996.8 |
| 20260905170004 | 48 | 331 | 7.0 | 10.4 | 0.00 | 0.12 | 0.12 | 86 | 996.6 |
| 20260905165403 | 48 | 329 | 7.8 | 13.9 | 0.00 | 0.12 | 0.12 | 87 | 996.6 |
| 20260905164503 | 48 | 331 | 6.1 | 12.2 | 0.00 | 0.12 | 0.12 | 87 | 996.5 |
| 20260905163604 | 49 | 334 | 4.3 | 9.6 | 0.00 | 0.12 | 0.12 | 86 | 996.4 |
| 20260905162704 | 49 | 339 | 5.2 | 10.4 | 0.00 | 0.12 | 0.12 | 86 | 996.5 |
| 20260905161824 | 49 | 336 | 7.8 | 14.8 | 0.00 | 0.12 | 0.12 | 85 | 996.3 |
| 20260905160904 | 49 | 336 | 7.0 | 13.9 | 0.00 | 0.12 | 0.12 | 86 | 996.3 |
| 20260905160004 | 50 | 332 | 7.8 | 13.9 | 0.00 | 0.12 | 0.12 | 86 | 996.1 |
| 20260905155403 | 50 | 333 | 6.1 | 13.0 | 0.00 | 0.12 | 0.12 | 87 | 996.0 |
| 20260905154504 | 50 | 328 | 7.8 | 14.8 | 0.00 | 0.12 | 0.12 | 87 | 995.9 |
| 20260905153604 | 50 | 326 | 8.7 | 14.8 | 0.00 | 0.12 | 0.12 | 86 | 995.8 |
| 20260905152704 | 50 | 336 | 5.2 | 12.2 | 0.00 | 0.12 | 0.12 | 86 | 995.7 |
| 20260905151804 | 50 | 335 | 4.3 | 8.7 | 0.00 | 0.12 | 0.12 | 87 | 995.6 |
| 20260905150903 | 50 | 331 | 7.0 | 13.0 | 0.00 | 0.12 | 0.12 | 87 | 995.5 |
| 20260905150025 | 50 | 330 | 8.7 | 12.2 | 0.00 | 0.12 | 0.12 | 88 | 995.4 |
| 20260905145403 | 50 | 330 | 7.8 | 12.2 | 0.00 | 0.12 | 0.12 | 88 | 995.4 |
| 20260905144504 | 50 | 330 | 8.7 | 12.2 | 0.00 | 0.12 | 0.12 | 88 | 995.3 |
| 20260905143603 | 50 | 329 | 8.7 | 14.8 | 0.00 | 0.12 | 0.12 | 88 | 995.2 |
| 20260905142703 | 50 | 329 | 9.6 | 16.5 | 0.00 | 0.12 | 0.12 | 88 | 995.1 |
| 20260905141804 | 51 | 325 | 8.7 | 13.0 | 0.00 | 0.12 | 0.12 | 88 | 995.0 |
| 20260905140904 | 51 | 326 | 7.0 | 13.0 | 0.00 | 0.12 | 0.12 | 90 | 994.8 |
| 20260905140004 | 50 | 331 | 7.0 | 15.6 | 0.00 | 0.12 | 0.12 | 90 | 994.9 |
| 20260905135404 | 50 | 332 | 8.7 | 15.6 | 0.00 | 0.12 | 0.12 | 90 | 994.8 |
| 20260905134504 | 50 | 329 | 9.6 | 15.6 | 0.00 | 0.12 | 0.12 | 89 | 994.8 |
| 20260905133603 | 51 | 330 | 7.0 | 14.8 | 0.00 | 0.12 | 0.12 | 89 | 994.7 |
| 20260905132703 | 51 | 328 | 8.7 | 13.9 | 0.00 | 0.12 | 0.12 | 89 | 994.6 |
| 20260905131825 | 51 | 327 | 9.6 | 14.8 | 0.00 | 0.12 | 0.12 | 89 | 994.6 |
| 20260905130904 | 52 | 326 | 8.7 | 13.0 | 0.00 | 0.12 | 0.12 | 88 | 994.5 |
| 20260905130025 | 52 | 330 | 7.8 | 15.6 | 0.00 | 0.12 | 0.12 | 87 | 994.4 |
| 20260905125403 | 52 | 322 | 8.7 | 13.9 | 0.00 | 0.12 | 0.12 | 87 | 994.4 |
| 20260905124503 | 53 | 319 | 10.4 | 16.5 | 0.00 | 0.12 | 0.12 | 86 | 994.3 |
| 20260905123603 | 53 | 316 | 8.7 | 15.6 | 0.00 | 0.12 | 0.12 | 87 | 994.2 |
| 20260905122703 | 52 | 324 | 9.6 | 15.6 | 0.00 | 0.12 | 0.12 | 88 | 994.1 |
| 20260905121824 | 52 | 322 | 10.4 | 17.4 | 0.00 | 0.12 | 0.12 | 88 | 994.1 |
| 20260905120903 | 53 | 320 | 9.6 | 17.4 | 0.00 | 0.12 | 0.12 | 88 | 993.9 |
| 20260905120004 | 53 | 320 | 9.6 | 17.4 | 0.00 | 0.12 | 0.12 | 89 | 993.8 |
| 20260905115404 | 53 | 322 | 9.6 | 19.1 | 0.00 | 0.12 | 0.12 | 88 | 993.8 |
| 20260905114503 | 54 | 318 | 9.6 | 15.6 | 0.00 | 0.12 | 0.12 | 89 | 993.6 |
| 20260905113604 | 53 | 329 | 9.6 | 15.6 | 0.00 | 0.12 | 0.12 | 89 | 993.6 |
| 20260905112703 | 53 | 328 | 8.7 | 13.0 | 0.00 | 0.12 | 0.12 | 90 | 993.6 |
| 20260905111803 | 54 | 333 | 7.0 | 13.0 | 0.00 | 0.12 | 0.12 | 91 | 993.5 |
| 20260905110903 | 54 | 338 | 7.0 | 13.0 | 0.00 | 0.12 | 0.12 | 91 | 993.4 |
| 20260905110003 | 54 | 340 | 4.3 | 11.3 | 0.00 | 0.12 | 0.12 | 93 | 993.3 |
| 20260905105403 | 53 | 335 | 5.2 | 11.3 | 0.00 | 0.12 | 0.12 | 93 | 993.3 |
| 20260905104503 | 53 | 332 | 5.2 | 11.3 | 0.01 | 0.12 | 0.12 | 95 | 993.2 |
| 20260905103603 | 52 | 329 | 3.5 | 9.6 | 0.02 | 0.12 | 0.12 | 95 | 993.1 |
| 20260905102703 | 52 | 331 | 4.3 | 7.8 | 0.02 | 0.12 | 0.12 | 94 | 993.0 |
| 20260905101824 | 52 | 336 | 2.6 | 7.0 | 0.02 | 0.12 | 0.12 | 95 | 993.0 |
| 20260905100903 | 52 | 338 | 2.6 | 7.0 | 0.02 | 0.12 | 0.12 | 95 | 992.9 |
| 20260905100003 | 51 | 335 | 3.5 | 8.7 | 0.02 | 0.12 | 0.12 | 95 | 992.9 |